Time,TemperatureF,DewpointF,PressureIn,WindDirection,WindDirectionDegrees,WindSpeedMPH,WindSpeedGustMPH,Humidity,HourlyPrecipIn,Conditions,Clouds,dailyrainin,SoftwareType,DateUTC
2013-03-12 00:06:00,60.4,52.0,29.83,ENE,62,5.0,-999.0,74,-99.99,,,0.00,weatherlink.com 1.10,2013-03-12 04:06:00,
2013-03-12 00:21:00,60.2,52.0,29.81,ENE,76,1.0,-999.0,74,-99.99,,,0.00,weatherlink.com 1.10,2013-03-12 04:21:00,
2013-03-12 00:36:00,60.1,52.0,29.82,ENE,58,0.0,-999.0,75,-99.99,,,0.00,weatherlink.com 1.10,2013-03-12 04:36:00,
2013-03-12 00:51:00,59.9,52.0,29.81,ENE,58,3.0,-999.0,75,-99.99,,,0.00,weatherlink.com 1.10,2013-03-12 04:51:00,
2013-03-12 01:06:00,59.9,52.0,29.80,NE,42,0.0,-999.0,76,-99.99,,,0.00,weatherlink.com 1.10,2013-03-12 05:06:00,
2013-03-12 01:21:00,59.9,53.0,29.79,ENE,68,0.0,-999.0,77,-99.99,,,0.00,weatherlink.com 1.10,2013-03-12 05:21:00,
2013-03-12 01:36:00,59.9,53.0,29.79,ENE,69,2.0,-999.0,78,-99.99,,,0.00,weatherlink.com 1.10,2013-03-12 05:36:00,
2013-03-12 01:51:00,59.3,54.0,29.78,ENE,59,3.0,-999.0,81,-99.99,,,0.00,weatherlink.com 1.10,2013-03-12 05:51:00,
2013-03-12 02:06:00,58.9,54.0,29.78,ESE,107,0.0,-999.0,83,-99.99,,,0.00,weatherlink.com 1.10,2013-03-12 06:06:00,
2013-03-12 02:22:00,58.6,55.0,29.78,ENE,72,6.0,-999.0,86,-99.99,,,0.00,weatherlink.com 1.10,2013-03-12 06:22:00,
2013-03-12 02:36:00,58.0,54.0,29.77,East,82,1.0,-999.0,87,-99.99,,,0.00,weatherlink.com 1.10,2013-03-12 06:36:00,
2013-03-12 02:51:00,57.3,54.0,29.76,ENE,61,0.0,-999.0,89,-99.99,,,0.00,weatherlink.com 1.10,2013-03-12 06:51:00,
2013-03-12 03:07:00,57.0,55.0,29.75,East,82,2.0,-999.0,91,-99.99,,,0.01,weatherlink.com 1.10,2013-03-12 07:07:00,
2013-03-12 03:22:00,56.9,-99.9,29.75,East,80,0.0,-999.0,-999,-99.99,,,0.03,weatherlink.com 1.10,2013-03-12 07:22:00,
2013-03-12 03:37:00,56.7,55.0,29.74,ENE,64,0.0,-999.0,93,-99.99,,,0.04,weatherlink.com 1.10,2013-03-12 07:37:00,
2013-03-12 03:52:00,56.7,55.0,29.73,ENE,64,0.0,-999.0,94,-99.99,,,0.05,weatherlink.com 1.10,2013-03-12 07:52:00,
2013-03-12 04:07:00,56.9,55.0,29.72,East,79,0.0,-999.0,94,-99.99,,,0.05,weatherlink.com 1.10,2013-03-12 08:07:00,
2013-03-12 04:22:00,57.2,56.0,29.72,ENE,59,0.0,-999.0,95,-99.99,,,0.05,weatherlink.com 1.10,2013-03-12 08:22:00,
2013-03-12 04:37:00,57.6,56.0,29.72,ENE,65,1.0,-999.0,95,-99.99,,,0.06,weatherlink.com 1.10,2013-03-12 08:37:00,
2013-03-12 04:52:00,58.0,57.0,29.71,East,82,0.0,-999.0,96,-99.99,,,0.06,weatherlink.com 1.10,2013-03-12 08:52:00,
2013-03-12 05:07:00,58.4,57.0,29.70,ENE,75,0.0,-999.0,96,-99.99,,,0.07,weatherlink.com 1.10,2013-03-12 09:07:00,
2013-03-12 05:22:00,58.7,58.0,29.70,East,85,0.0,-999.0,96,-99.99,,,0.08,weatherlink.com 1.10,2013-03-12 09:22:00,
2013-03-12 05:37:00,59.0,58.0,29.69,SE,124,0.0,-999.0,96,-99.99,,,0.09,weatherlink.com 1.10,2013-03-12 09:37:00,
2013-03-12 05:52:00,59.2,58.0,29.69,ENE,73,0.0,-999.0,96,-99.99,,,0.09,weatherlink.com 1.10,2013-03-12 09:52:00,
2013-03-12 06:07:00,59.5,58.0,29.68,SE,127,2.0,-999.0,96,-99.99,,,0.11,weatherlink.com 1.10,2013-03-12 10:07:00,
2013-03-12 06:22:00,59.6,59.0,29.68,East,79,0.0,-999.0,96,-99.99,,,0.11,weatherlink.com 1.10,2013-03-12 10:22:00,
2013-03-12 06:37:00,59.8,59.0,29.68,East,82,0.0,-999.0,96,-99.99,,,0.13,weatherlink.com 1.10,2013-03-12 10:37:00,
2013-03-12 06:52:00,59.8,59.0,29.67,East,79,0.0,-999.0,96,-99.99,,,0.20,weatherlink.com 1.10,2013-03-12 10:52:00,
2013-03-12 07:07:00,59.9,59.0,29.68,ENE,78,0.0,-999.0,96,-99.99,,,0.21,weatherlink.com 1.10,2013-03-12 11:07:00,
2013-03-12 07:22:00,59.9,59.0,29.67,ENE,71,0.0,-999.0,96,-99.99,,,0.21,weatherlink.com 1.10,2013-03-12 11:22:00,
2013-03-12 07:37:00,59.9,59.0,29.66,ESE,102,0.0,-999.0,96,-99.99,,,0.22,weatherlink.com 1.10,2013-03-12 11:37:00,
2013-03-12 07:52:00,59.9,59.0,29.66,ENE,66,0.0,-999.0,96,-99.99,,,0.23,weatherlink.com 1.10,2013-03-12 11:52:00,
2013-03-12 08:07:00,60.1,59.0,29.67,ENE,68,0.0,-999.0,96,-99.99,,,0.27,weatherlink.com 1.10,2013-03-12 12:07:00,
2013-03-12 08:22:00,60.2,59.0,29.66,SE,126,0.0,-999.0,96,-99.99,,,0.31,weatherlink.com 1.10,2013-03-12 12:22:00,
2013-03-12 08:38:00,60.2,59.0,29.66,ENE,76,0.0,-999.0,96,-99.99,,,0.33,weatherlink.com 1.10,2013-03-12 12:38:00,
2013-03-12 08:53:00,60.4,60.0,29.66,SE,137,0.0,-999.0,97,-99.99,,,0.33,weatherlink.com 1.10,2013-03-12 12:53:00,
2013-03-12 09:08:00,60.4,60.0,29.66,South,184,0.0,-999.0,97,-99.99,,,0.34,weatherlink.com 1.10,2013-03-12 13:08:00,
2013-03-12 09:23:00,60.5,59.0,29.66,South,191,0.0,-999.0,96,-99.99,,,0.35,weatherlink.com 1.10,2013-03-12 13:23:00,
2013-03-12 09:38:00,60.4,59.0,29.67,SSE,152,0.0,-999.0,96,-99.99,,,0.47,weatherlink.com 1.10,2013-03-12 13:38:00,
2013-03-12 09:53:00,60.4,60.0,29.68,South,184,12.0,-999.0,97,-99.99,,,0.56,weatherlink.com 1.10,2013-03-12 13:53:00,
2013-03-12 10:08:00,60.7,60.0,29.68,SE,143,7.0,-999.0,97,-99.99,,,0.56,weatherlink.com 1.10,2013-03-12 14:08:00,
2013-03-12 10:23:00,61.3,61.0,29.69,ENE,73,0.0,-999.0,97,-99.99,,,0.56,weatherlink.com 1.10,2013-03-12 14:23:00,
2013-03-12 10:38:00,61.3,60.0,29.68,SSE,168,0.0,-999.0,96,-99.99,,,0.56,weatherlink.com 1.10,2013-03-12 14:38:00,
2013-03-12 10:53:00,61.6,61.0,29.68,East,90,5.0,-999.0,96,-99.99,,,0.56,weatherlink.com 1.10,2013-03-12 14:53:00,
2013-03-12 11:08:00,61.6,60.0,29.68,SSE,161,0.0,-999.0,95,-99.99,,,0.56,weatherlink.com 1.10,2013-03-12 15:08:00,
2013-03-12 11:23:00,61.3,59.0,29.68,South,185,1.0,-999.0,93,-99.99,,,0.56,weatherlink.com 1.10,2013-03-12 15:23:00,
2013-03-12 11:38:00,61.6,60.0,29.68,SE,136,1.0,-999.0,93,-99.99,,,0.56,weatherlink.com 1.10,2013-03-12 15:38:00,
2013-03-12 11:53:00,61.6,59.0,29.68,SE,124,0.0,-999.0,92,-99.99,,,0.57,weatherlink.com 1.10,2013-03-12 15:53:00,
2013-03-12 12:08:00,61.8,60.0,29.69,SSW,195,0.0,-999.0,92,-99.99,,,0.57,weatherlink.com 1.10,2013-03-12 16:08:00,
2013-03-12 12:23:00,62.3,59.0,29.69,SE,127,3.0,-999.0,90,-99.99,,,0.57,weatherlink.com 1.10,2013-03-12 16:23:00,
2013-03-12 12:38:00,62.9,60.0,29.68,SSW,202,0.0,-999.0,89,-99.99,,,0.57,weatherlink.com 1.10,2013-03-12 16:38:00,
2013-03-12 12:53:00,63.2,60.0,29.68,SSE,150,0.0,-999.0,88,-99.99,,,0.57,weatherlink.com 1.10,2013-03-12 16:53:00,
2013-03-12 13:09:00,63.4,61.0,29.68,SSE,161,0.0,-999.0,90,-99.99,,,0.57,weatherlink.com 1.10,2013-03-12 17:09:00,
2013-03-12 13:24:00,65.5,62.0,29.68,SE,136,0.0,-999.0,89,-99.99,,,0.57,weatherlink.com 1.10,2013-03-12 17:24:00,
2013-03-12 13:39:00,65.8,60.0,29.67,South,185,0.0,-999.0,82,-99.99,,,0.57,weatherlink.com 1.10,2013-03-12 17:39:00,
2013-03-12 13:54:00,64.8,59.0,29.66,South,176,0.0,-999.0,80,-99.99,,,0.57,weatherlink.com 1.10,2013-03-12 17:54:00,
2013-03-12 14:09:00,62.9,57.0,29.66,ESE,110,0.0,-999.0,82,-99.99,,,0.57,weatherlink.com 1.10,2013-03-12 18:09:00,
2013-03-12 14:24:00,63.4,57.0,29.66,ESE,117,0.0,-999.0,79,-99.99,,,0.57,weatherlink.com 1.10,2013-03-12 18:24:00,
2013-03-12 14:39:00,64.2,57.0,29.66,SW,222,0.0,-999.0,77,-99.99,,,0.57,weatherlink.com 1.10,2013-03-12 18:39:00,
2013-03-12 14:54:00,65.3,57.0,29.65,SW,230,0.0,-999.0,74,-99.99,,,0.57,weatherlink.com 1.10,2013-03-12 18:54:00,
2013-03-12 15:09:00,64.8,56.0,29.64,SW,236,0.0,-999.0,73,-99.99,,,0.57,weatherlink.com 1.10,2013-03-12 19:09:00,
2013-03-12 15:24:00,65.8,56.0,29.64,SE,137,0.0,-999.0,70,-99.99,,,0.57,weatherlink.com 1.10,2013-03-12 19:24:00,
2013-03-12 15:39:00,66.6,56.0,29.63,ESE,110,0.0,-999.0,68,-99.99,,,0.57,weatherlink.com 1.10,2013-03-12 19:39:00,
2013-03-12 15:54:00,67.1,56.0,29.63,WSW,240,0.0,-999.0,68,-99.99,,,0.57,weatherlink.com 1.10,2013-03-12 19:54:00,
2013-03-12 16:09:00,67.9,56.0,29.63,WSW,237,5.0,-999.0,66,-99.99,,,0.57,weatherlink.com 1.10,2013-03-12 20:09:00,
2013-03-12 16:24:00,68.1,55.0,29.63,South,186,1.0,-999.0,64,-99.99,,,0.57,weatherlink.com 1.10,2013-03-12 20:24:00,
2013-03-12 16:39:00,67.3,55.0,29.64,SSW,200,0.0,-999.0,66,-99.99,,,0.57,weatherlink.com 1.10,2013-03-12 20:39:00,
2013-03-12 16:54:00,67.8,54.0,29.64,SSW,212,0.0,-999.0,62,-99.99,,,0.57,weatherlink.com 1.10,2013-03-12 20:54:00,
2013-03-12 17:09:00,66.9,53.0,29.64,South,175,0.0,-999.0,62,-99.99,,,0.57,weatherlink.com 1.10,2013-03-12 21:09:00,
2013-03-12 17:24:00,67.3,54.0,29.65,WSW,240,0.0,-999.0,62,-99.99,,,0.57,weatherlink.com 1.10,2013-03-12 21:24:00,
2013-03-12 17:39:00,67.1,53.0,29.65,South,184,2.0,-999.0,60,-99.99,,,0.57,weatherlink.com 1.10,2013-03-12 21:39:00,
2013-03-12 17:54:00,67.6,51.0,29.66,West,281,0.0,-999.0,56,-99.99,,,0.57,weatherlink.com 1.10,2013-03-12 21:54:00,
2013-03-12 18:09:00,66.9,51.0,29.65,WSW,244,0.0,-999.0,57,-99.99,,,0.57,weatherlink.com 1.10,2013-03-12 22:09:00,
2013-03-12 18:39:00,65.6,51.0,29.67,SSW,210,0.0,-999.0,60,-99.99,,,0.57,weatherlink.com 1.10,2013-03-12 22:39:00,
2013-03-12 18:54:00,64.7,51.0,29.68,SSW,210,0.0,-999.0,61,-99.99,,,0.57,weatherlink.com 1.10,2013-03-12 22:54:00,
2013-03-12 19:09:00,63.5,50.0,29.68,South,178,0.0,-999.0,61,-99.99,,,0.57,weatherlink.com 1.10,2013-03-12 23:09:00,
2013-03-12 19:24:00,62.4,49.0,29.70,South,175,0.0,-999.0,61,-99.99,,,0.57,weatherlink.com 1.10,2013-03-12 23:24:00,
2013-03-12 19:39:00,61.3,48.0,29.70,WSW,246,0.0,-999.0,62,-99.99,,,0.57,weatherlink.com 1.10,2013-03-12 23:39:00,
2013-03-12 19:54:00,59.9,45.0,29.71,SSW,209,0.0,-999.0,59,-99.99,,,0.57,weatherlink.com 1.10,2013-03-12 23:54:00,
2013-03-12 20:09:00,59.0,44.0,29.72,SSW,209,0.0,-999.0,59,-99.99,,,0.57,weatherlink.com 1.10,2013-03-13 00:09:00,
2013-03-12 20:24:00,58.1,44.0,29.73,SSW,213,0.0,-999.0,60,-99.99,,,0.57,weatherlink.com 1.10,2013-03-13 00:24:00,
2013-03-12 20:39:00,56.9,44.0,29.74,SSW,213,0.0,-999.0,62,-99.99,,,0.57,weatherlink.com 1.10,2013-03-13 00:39:00,
2013-03-12 20:54:00,56.3,41.0,29.76,WNW,295,0.0,-999.0,56,-99.99,,,0.57,weatherlink.com 1.10,2013-03-13 00:54:00,
2013-03-12 21:09:00,56.2,39.0,29.77,WNW,287,0.0,-999.0,53,-99.99,,,0.57,weatherlink.com 1.10,2013-03-13 01:09:00,
2013-03-12 21:24:00,55.7,36.0,29.77,WSW,254,0.0,-999.0,48,-99.99,,,0.57,weatherlink.com 1.10,2013-03-13 01:24:00,
2013-03-12 21:39:00,54.8,37.0,29.78,WSW,254,0.0,-999.0,52,-99.99,,,0.57,weatherlink.com 1.10,2013-03-13 01:39:00,
2013-03-12 21:54:00,54.2,37.0,29.79,SSW,199,0.0,-999.0,53,-99.99,,,0.57,weatherlink.com 1.10,2013-03-13 01:54:00,
2013-03-12 22:09:00,53.8,37.0,29.79,SSW,200,0.0,-999.0,53,-99.99,,,0.57,weatherlink.com 1.10,2013-03-13 02:09:00,
2013-03-12 22:24:00,53.1,-99.9,29.80,WSW,239,0.0,-999.0,-999,-99.99,,,0.57,weatherlink.com 1.10,2013-03-13 02:24:00,
2013-03-12 22:39:00,52.6,36.0,29.81,West,281,0.0,-999.0,54,-99.99,,,0.57,weatherlink.com 1.10,2013-03-13 02:39:00,
2013-03-12 22:54:00,52.2,36.0,29.81,West,278,0.0,-999.0,55,-99.99,,,0.57,weatherlink.com 1.10,2013-03-13 02:54:00,
2013-03-12 23:09:00,51.6,36.0,29.82,West,275,0.0,-999.0,56,-99.99,,,0.57,weatherlink.com 1.10,2013-03-13 03:09:00,
2013-03-12 23:24:00,50.8,36.0,29.83,West,275,0.0,-999.0,57,-99.99,,,0.57,weatherlink.com 1.10,2013-03-13 03:24:00,
2013-03-12 23:39:00,49.8,37.0,29.83,WSW,248,0.0,-999.0,62,-99.99,,,0.57,weatherlink.com 1.10,2013-03-13 03:39:00,
2013-03-12 23:54:00,48.8,37.0,29.83,WSW,248,0.0,-999.0,64,-99.99,,,0.57,weatherlink.com 1.10,2013-03-13 03:54:00,